Dewpoint
46 48 48 45 45 48 45 44 44 44 44 44 44 45 45 46 47 47 47 45 45 43 43 42 43 43 43 43 44 45 46 46 47 47 47 48 48 49 50 51 52 52
46 48 49 46 46 46 45 45 44 44 44 44 45 45 46 46 47 47 46 45 44 43 42 42 42 43 42 43 43 44 45 45 46 48 47 48 48 50 51 52 52 54
45 45 45 44 44 44 44 45 45 44 45 45 45 46 47 48 47 47 46 45 43 42 42 42 42 42 42 43 43 44 44 45 45 46 47 47 49 51 52 53 54 54
45 45 45 44 44 44 44 44 44 44 45 45 44 45 47 48 47 46 45 45 42 42 41 42 41 41 42 42 43 44 44 45 45 46 46 49 51 53 53 52 54 53
45 45 45 44 45 45 44 43 44 44 44 44 44 46 46 46 47 45 44 43 42 41 41 41 41 41 42 42 42 43 43 44 44 45 47 49 50 51 53 53 53 53
44 44 45 44 44 44 43 43 44 44 44 43 44 45 44 46 46 45 43 42 41 41 40 40 40 41 42 41 42 43 43 43 44 45 47 49 50 51 52 53 53 53
43 44 44 44 43 43 42 42 43 44 44 44 44 43 44 46 46 45 43 42 41 41 40 40 40 41 41 41 41 41 42 43 44 46 47 49 52 50 52 52 53 51
43 43 43 42 42 42 42 42 42 42 44 42 42 43 44 46 46 45 43 42 40 39 39 40 40 41 41 41 41 41 43 44 45 46 48 50 52 51 51 52 52 51
43 42 42 41 41 41 41 41 41 41 44 42 42 42 44 46 46 44 43 41 40 40 39 39 40 40 41 40 40 41 41 42 45 47 49 50 51 51 52 52 52 52
42 42 41 41 40 40 40 40 41 41 43 42 41 42 43 44 46 45 43 41 40 39 39 39 39 40 40 40 40 40 41 43 45 47 50 50 51 51 51 52 52 51
42 41 40 40 40 40 40 40 40 40 41 41 41 41 43 43 45 45 42 41 40 39 39 38 39 40 40 39 40 40 41 43 44 47 50 50 51 51 52 51 51 50
41 41 40 40 40 40 40 40 40 40 40 41 42 41 42 43 44 45 43 40 40 39 38 38 39 40 40 39 39 40 41 43 44 47 50 50 51 50 50 50 50 47
40 40 40 40 39 39 40 39 39 39 40 40 41 41 42 42 42 44 44 41 40 39 39 38 39 40 39 39 39 39 41 42 43 46 48 50 50 50 49 47 48 47
40 40 40 40 40 39 39 39 39 39 40 40 41 41 42 42 41 41 43 42 41 39 38 38 39 39 39 39 39 39 40 42 43 45 47 48 49 49 49 46 45 45
41 41 40 39 39 39 39 39 39 40 40 40 40 41 43 42 41 40 40 41 41 39 38 38 39 39 39 39 39 39 40 41 42 44 46 47 48 48 49 48 44 43
40 41 39 39 38 38 38 39 39 40 40 40 40 40 41 42 41 41 40 40 40 39 38 38 38 38 40 40 40 40 41 41 41 43 45 46 47 47 48 48 45 42
40 39 39 38 38 38 38 39 39 40 39 39 40 40 40 41 40 40 40 40 40 40 38 37 37 37 38 37 38 39 41 41 41 42 44 46 46 46 47 48 45 42
39 38 38 38 38 38 38 38 39 39 39 39 39 39 40 39 39 39 39 39 39 39 38 37 37 39 37 37 38 38 40 40 40 41 43 45 45 45 46 47 45 42
39 38 38 38 38 38 38 38 38 39 39 39 39 40 38 38 39 39 38 38 38 37 36 36 35 38 37 37 37 37 38 40 39 40 43 44 44 44 45 46 45 43
39 38 38 38 38 38 38 37 38 38 39 39 39 39 38 38 38 38 38 38 38 37 36 35 35 38 36 37 37 37 38 38 38 40 42 43 43 43 43 45 44 42
39 38 38 38 37 37 37 37 37 38 38 39 38 38 38 37 37 37 38 38 37 36 36 34 35 37 36 36 36 37 37 38 38 39 41 42 42 41 41 43 43 41
39 38 37 37 37 37 37 37 37 37 37 38 39 37 38 37 37 37 36 36 36 35 35 34 34 36 36 36 36 36 38 37 37 38 40 41 40 39 39 40 43 41
39 38 37 37 37 36 36 36 36 37 37 38 36 36 37 37 36 35 35 34 34 34 34 33 33 36 36 36 36 36 38 35 36 37 38 40 40 38 38 38 40 41
38 38 37 37 36 36 36 36 37 37 37 37 35 35 35 37 36 34 34 34 33 33 34 33 33 35 36 36 36 36 38 35 35 36 37 38 38 37 37 37 39 46
38 38 37 36 36 36 36 36 36 36 37 35 35 34 35 36 37 33 32 32 32 32 36 33 32 34 36 35 36 36 37 34 35 35 36 37 36 36 35 36 36 40
39 39 37 35 35 35 35 35 36 34 34 34 34 34 34 35 34 32 31 31 31 30 31 31 32 32 35 35 35 35 36 35 34 34 35 36 35 35 34 34 35 35